Orbital Elements at Epoch 2459200.5 (2020-Dec-17.0) TDB
Reference: JPL 17 (heliocentric ecliptic J2000)
Element | Value | Uncertainty (1-sigma) | Units |
e | .07980791287599598 | 5.7467e-08 | |
a | 2.396649770809154 | 1.6338e-08 | au |
q | 2.205378154706142 | 1.3392e-07 | au |
i | 8.790259092265082 | 6.5015e-06 | deg |
node | 341.0455380462119 | 2.9652e-05 | deg |
peri | 122.2254509564835 | 4.8062e-05 | deg |
M | 232.3065828503796 | 3.9768e-05 | deg |
tp | 2459681.196872107339 (2022-Apr-11.69687211) | 0.00015254 | TDB |
period | 1355.20591289272 3.71 | 1.3857e-05 3.794e-08 | d yr |
n | .2656422884339187 | 2.7163e-09 | deg/d |
Q | 2.587921386912167 | 1.7642e-08 | au |
|
| | Orbit Determination Parameters
Additional Information
|